Time,TemperatureF,DewpointF,PressureIn,WindDirection,WindDirectionDegrees,WindSpeedMPH,WindSpeedGustMPH,Humidity,HourlyPrecipIn,Conditions,Clouds,dailyrainin,SoftwareType,DateUTC
2013-09-15 00:01:00,58.0,45.1,29.48,North,360,0.0,5.0,62,0.00,,---,0.00,VWS V12.08,2013-09-15 04:01:00,
2013-09-15 00:03:00,58.0,44.6,29.48,North,360,2.0,5.0,61,0.00,,---,0.00,VWS V12.08,2013-09-15 04:03:00,
2013-09-15 00:04:00,57.8,44.5,29.48,North,360,4.0,5.0,61,0.00,,---,0.00,VWS V12.08,2013-09-15 04:04:00,
2013-09-15 00:05:00,57.6,44.7,29.48,North,360,5.0,6.0,62,0.00,,---,0.00,VWS V12.08,2013-09-15 04:05:00,
2013-09-15 00:06:00,57.5,44.2,29.48,North,360,4.0,6.0,61,0.00,,---,0.00,VWS V12.08,2013-09-15 04:06:00,
2013-09-15 00:09:00,56.9,44.5,29.48,North,360,1.0,9.0,63,0.00,,---,0.00,VWS V12.08,2013-09-15 04:09:00,
2013-09-15 00:14:00,56.9,44.9,29.48,North,360,2.0,9.0,64,0.00,,---,0.00,VWS V12.08,2013-09-15 04:14:00,
2013-09-15 00:19:00,57.0,44.5,29.48,North,360,0.0,9.0,63,0.00,,---,0.00,VWS V12.08,2013-09-15 04:19:00,
2013-09-15 00:24:00,56.9,44.5,29.48,North,360,0.0,9.0,63,0.00,,---,0.00,VWS V12.08,2013-09-15 04:24:00,
2013-09-15 00:29:00,57.3,44.4,29.47,North,360,1.0,6.0,62,0.00,,---,0.00,VWS V12.08,2013-09-15 04:29:00,
2013-09-15 00:34:00,57.5,44.6,29.47,North,360,4.0,6.0,62,0.00,,---,0.00,VWS V12.08,2013-09-15 04:34:00,
2013-09-15 00:39:00,57.5,45.0,29.47,North,360,0.0,6.0,63,0.00,,---,0.00,VWS V12.08,2013-09-15 04:39:00,
2013-09-15 00:44:00,57.6,44.3,29.48,North,360,3.0,6.0,61,0.00,,---,0.00,VWS V12.08,2013-09-15 04:44:00,
2013-09-15 00:49:00,57.5,44.6,29.48,NW,306,0.0,6.0,62,0.00,,---,0.00,VWS V12.08,2013-09-15 04:49:00,
2013-09-15 00:54:00,57.0,44.1,29.48,North,360,3.0,6.0,62,0.00,,---,0.00,VWS V12.08,2013-09-15 04:54:00,
2013-09-15 00:59:00,56.7,44.3,29.48,North,360,0.0,3.0,63,0.00,,---,0.00,VWS V12.08,2013-09-15 04:59:00,
2013-09-15 01:04:00,56.5,44.1,29.48,North,360,3.0,5.0,63,0.00,,---,0.00,VWS V12.08,2013-09-15 05:04:00,
2013-09-15 01:09:00,56.6,44.6,29.48,North,360,0.0,5.0,64,0.00,,---,0.00,VWS V12.08,2013-09-15 05:09:00,
2013-09-15 01:14:00,56.5,43.7,29.48,North,360,2.0,7.0,62,0.00,,---,0.00,VWS V12.08,2013-09-15 05:14:00,
2013-09-15 01:19:00,56.3,43.9,29.48,North,360,0.0,7.0,63,0.00,,---,0.00,VWS V12.08,2013-09-15 05:19:00,
2013-09-15 01:24:00,56.3,43.9,29.48,North,360,0.0,7.0,63,0.00,,---,0.00,VWS V12.08,2013-09-15 05:24:00,
2013-09-15 01:29:00,56.2,43.8,29.48,North,360,0.0,3.0,63,0.00,,---,0.00,VWS V12.08,2013-09-15 05:29:00,
2013-09-15 01:34:00,56.3,43.5,29.48,North,360,3.0,4.0,62,0.00,,---,0.00,VWS V12.08,2013-09-15 05:34:00,
2013-09-15 01:39:00,56.9,43.6,29.48,WNW,295,0.0,4.0,61,0.00,,---,0.00,VWS V12.08,2013-09-15 05:39:00,
2013-09-15 01:44:00,56.9,43.2,29.48,North,360,0.0,6.0,60,0.00,,---,0.00,VWS V12.08,2013-09-15 05:44:00,
2013-09-15 01:49:00,56.5,43.2,29.48,North,360,0.0,6.0,61,0.00,,---,0.00,VWS V12.08,2013-09-15 05:49:00,
2013-09-15 01:54:00,56.3,43.5,29.48,North,360,0.0,6.0,62,0.00,,---,0.00,VWS V12.08,2013-09-15 05:54:00,
2013-09-15 01:59:00,56.3,43.0,29.48,North,360,3.0,3.0,61,0.00,,---,0.00,VWS V12.08,2013-09-15 05:59:00,
2013-09-15 02:04:00,56.3,42.2,29.48,North,360,2.0,5.0,59,0.00,,---,0.00,VWS V12.08,2013-09-15 06:04:00,
2013-09-15 02:09:00,56.5,42.8,29.48,North,360,0.0,5.0,60,0.00,,---,0.00,VWS V12.08,2013-09-15 06:09:00,
2013-09-15 02:14:00,56.7,43.0,29.48,North,360,0.0,5.0,60,0.00,,---,0.00,VWS V12.08,2013-09-15 06:14:00,
2013-09-15 02:19:00,57.3,42.7,29.48,North,360,1.0,5.0,58,0.00,,---,0.00,VWS V12.08,2013-09-15 06:19:00,
2013-09-15 02:24:00,57.2,42.1,29.48,North,360,3.0,5.0,57,0.00,,---,0.00,VWS V12.08,2013-09-15 06:24:00,
2013-09-15 02:29:00,56.6,42.0,29.48,North,360,0.0,2.0,58,0.00,,---,0.00,VWS V12.08,2013-09-15 06:29:00,
2013-09-15 02:34:00,57.0,42.8,29.48,North,360,0.0,2.0,59,0.00,,---,0.00,VWS V12.08,2013-09-15 06:34:00,
2013-09-15 02:39:00,57.5,42.8,29.48,North,360,0.0,3.0,58,0.00,,---,0.00,VWS V12.08,2013-09-15 06:39:00,
2013-09-15 02:44:00,57.6,42.5,29.48,North,360,0.0,5.0,57,0.00,,---,0.00,VWS V12.08,2013-09-15 06:44:00,
2013-09-15 02:49:00,57.0,43.3,29.48,North,360,0.0,5.0,60,0.00,,---,0.00,VWS V12.08,2013-09-15 06:49:00,
2013-09-15 02:54:00,57.3,43.5,29.48,North,360,0.0,5.0,60,0.00,,---,0.00,VWS V12.08,2013-09-15 06:54:00,
2013-09-15 02:59:00,56.9,43.2,29.48,North,360,0.0,1.0,60,0.00,,---,0.00,VWS V12.08,2013-09-15 06:59:00,
2013-09-15 03:04:00,57.2,43.9,29.48,North,360,0.0,3.0,61,0.00,,---,0.00,VWS V12.08,2013-09-15 07:04:00,
2013-09-15 03:09:00,57.2,43.5,29.48,North,355,3.0,3.0,60,0.00,,---,0.00,VWS V12.08,2013-09-15 07:09:00,
2013-09-15 03:14:00,57.5,43.7,29.48,North,360,0.0,3.0,60,0.00,,---,0.00,VWS V12.08,2013-09-15 07:14:00,
2013-09-15 03:19:00,57.8,43.6,29.48,North,360,2.0,3.0,59,0.00,,---,0.00,VWS V12.08,2013-09-15 07:19:00,
2013-09-15 03:24:00,57.3,43.5,29.48,North,360,0.0,4.0,60,0.00,,---,0.00,VWS V12.08,2013-09-15 07:24:00,
2013-09-15 03:29:00,57.0,43.7,29.48,North,360,0.0,0.0,61,0.00,,---,0.00,VWS V12.08,2013-09-15 07:29:00,
2013-09-15 03:34:00,57.0,42.8,29.48,North,360,0.0,5.0,59,0.00,,---,0.00,VWS V12.08,2013-09-15 07:34:00,
2013-09-15 03:39:00,56.7,43.4,29.48,North,360,0.0,5.0,61,0.00,,---,0.00,VWS V12.08,2013-09-15 07:39:00,
2013-09-15 03:44:00,56.0,42.8,29.49,North,360,2.0,9.0,61,0.00,,---,0.00,VWS V12.08,2013-09-15 07:44:00,
2013-09-15 03:49:00,55.9,43.9,29.49,North,360,2.0,9.0,64,0.00,,---,0.00,VWS V12.08,2013-09-15 07:49:00,
2013-09-15 03:54:00,56.3,43.9,29.49,North,360,0.0,9.0,63,0.00,,---,0.00,VWS V12.08,2013-09-15 07:54:00,
2013-09-15 03:59:00,56.2,43.8,29.49,North,360,0.0,2.0,63,0.00,,---,0.00,VWS V12.08,2013-09-15 07:59:00,
2013-09-15 04:04:00,56.3,43.0,29.49,North,360,0.0,4.0,61,0.00,,---,0.00,VWS V12.08,2013-09-15 08:04:00,
2013-09-15 04:09:00,56.0,43.2,29.49,North,360,0.0,4.0,62,0.00,,---,0.00,VWS V12.08,2013-09-15 08:09:00,
2013-09-15 04:14:00,55.4,43.4,29.49,North,360,0.0,6.0,64,0.00,,---,0.00,VWS V12.08,2013-09-15 08:14:00,
2013-09-15 04:19:00,55.3,43.8,29.49,North,360,0.0,6.0,65,0.00,,---,0.00,VWS V12.08,2013-09-15 08:19:00,
2013-09-15 04:24:00,55.7,43.7,29.49,North,360,0.0,6.0,64,0.00,,---,0.00,VWS V12.08,2013-09-15 08:24:00,
2013-09-15 04:29:00,56.2,43.8,29.49,North,360,1.0,1.0,63,0.00,,---,0.00,VWS V12.08,2013-09-15 08:29:00,
2013-09-15 04:34:00,56.2,43.8,29.49,North,360,2.0,3.0,63,0.00,,---,0.00,VWS V12.08,2013-09-15 08:34:00,
2013-09-15 04:39:00,56.0,43.2,29.49,North,360,0.0,3.0,62,0.00,,---,0.00,VWS V12.08,2013-09-15 08:39:00,
2013-09-15 04:44:00,56.5,43.7,29.50,North,360,1.0,3.0,62,0.00,,---,0.00,VWS V12.08,2013-09-15 08:44:00,
2013-09-15 04:49:00,56.5,43.7,29.50,North,360,0.0,3.0,62,0.00,,---,0.00,VWS V12.08,2013-09-15 08:49:00,
2013-09-15 04:54:00,55.6,43.2,29.50,North,360,0.0,3.0,63,0.00,,---,0.00,VWS V12.08,2013-09-15 08:54:00,
2013-09-15 04:59:00,55.0,43.1,29.49,North,360,0.0,1.0,64,0.00,,---,0.00,VWS V12.08,2013-09-15 08:59:00,
2013-09-15 05:04:00,55.1,43.6,29.49,North,360,0.0,4.0,65,0.00,,---,0.00,VWS V12.08,2013-09-15 09:04:00,
2013-09-15 05:09:00,55.4,43.8,29.49,North,360,0.0,4.0,65,0.00,,---,0.00,VWS V12.08,2013-09-15 09:09:00,
2013-09-15 05:14:00,55.4,43.4,29.50,North,360,0.0,4.0,64,0.00,,---,0.00,VWS V12.08,2013-09-15 09:14:00,
2013-09-15 05:19:00,54.5,43.0,29.50,North,360,0.0,4.0,65,0.00,,---,0.00,VWS V12.08,2013-09-15 09:19:00,
2013-09-15 05:25:00,54.4,43.3,29.50,North,360,0.0,4.0,66,0.00,,---,0.00,VWS V12.08,2013-09-15 09:25:00,
2013-09-15 05:30:00,54.5,43.8,29.50,North,360,0.0,1.0,67,0.00,,---,0.00,VWS V12.08,2013-09-15 09:30:00,
2013-09-15 05:35:00,54.4,43.7,29.50,North,360,3.0,6.0,67,0.00,,---,0.00,VWS V12.08,2013-09-15 09:35:00,
2013-09-15 05:40:00,54.1,43.4,29.50,North,360,0.0,6.0,67,0.00,,---,0.00,VWS V12.08,2013-09-15 09:40:00,
2013-09-15 05:45:00,54.5,43.8,29.51,North,360,0.0,6.0,67,0.00,,---,0.00,VWS V12.08,2013-09-15 09:45:00,
2013-09-15 05:50:00,54.5,43.4,29.51,North,360,0.0,6.0,66,0.00,,---,0.00,VWS V12.08,2013-09-15 09:50:00,
2013-09-15 05:55:00,54.1,43.4,29.51,North,360,2.0,6.0,67,0.00,,---,0.00,VWS V12.08,2013-09-15 09:55:00,
2013-09-15 06:00:00,54.1,43.8,29.51,North,360,0.0,0.0,68,0.00,,---,0.00,VWS V12.08,2013-09-15 10:00:00,
2013-09-15 06:05:00,54.5,43.8,29.51,North,360,0.0,2.0,67,0.00,,---,0.00,VWS V12.08,2013-09-15 10:05:00,
2013-09-15 06:10:00,54.7,44.0,29.51,North,360,0.0,3.0,67,0.00,,---,0.00,VWS V12.08,2013-09-15 10:10:00,
2013-09-15 06:15:00,54.8,44.1,29.51,North,360,0.0,4.0,67,0.00,,---,0.00,VWS V12.08,2013-09-15 10:15:00,
2013-09-15 06:20:00,55.1,44.0,29.51,North,360,0.0,4.0,66,0.00,,---,0.00,VWS V12.08,2013-09-15 10:20:00,
2013-09-15 06:25:00,55.1,44.0,29.51,North,360,0.0,4.0,66,0.00,,---,0.00,VWS V12.08,2013-09-15 10:25:00,
2013-09-15 06:30:00,55.3,43.8,29.51,North,360,1.0,2.0,65,0.00,,---,0.00,VWS V12.08,2013-09-15 10:30:00,
2013-09-15 06:35:00,55.4,43.8,29.51,North,360,0.0,2.0,65,0.00,,---,0.00,VWS V12.08,2013-09-15 10:35:00,
2013-09-15 06:40:00,54.8,43.7,29.51,North,360,0.0,4.0,66,0.00,,---,0.00,VWS V12.08,2013-09-15 10:40:00,
2013-09-15 06:45:00,55.4,44.2,29.52,North,360,0.0,4.0,66,0.00,,---,0.00,VWS V12.08,2013-09-15 10:45:00,
2013-09-15 06:50:00,55.6,44.0,29.52,North,360,0.0,4.0,65,0.00,,---,0.00,VWS V12.08,2013-09-15 10:50:00,
2013-09-15 06:55:00,55.9,43.5,29.52,North,360,0.0,4.0,63,0.00,,---,0.00,VWS V12.08,2013-09-15 10:55:00,
2013-09-15 07:00:00,55.9,43.9,29.52,North,360,2.0,2.0,64,0.00,,---,0.00,VWS V12.08,2013-09-15 11:00:00,
2013-09-15 07:05:00,55.6,43.6,29.52,North,360,0.0,2.0,64,0.00,,---,0.00,VWS V12.08,2013-09-15 11:05:00,
2013-09-15 07:10:00,55.4,43.4,29.52,North,360,0.0,2.0,64,0.00,,---,0.00,VWS V12.08,2013-09-15 11:10:00,
2013-09-15 07:15:00,55.4,43.8,29.53,North,360,4.0,4.0,65,0.00,,---,0.00,VWS V12.08,2013-09-15 11:15:00,
2013-09-15 07:20:00,55.3,43.8,29.53,North,360,0.0,4.0,65,0.00,,---,0.00,VWS V12.08,2013-09-15 11:20:00,
2013-09-15 07:25:00,55.1,43.6,29.53,North,360,1.0,4.0,65,0.00,,---,0.00,VWS V12.08,2013-09-15 11:25:00,
2013-09-15 07:30:00,55.3,43.3,29.53,North,360,0.0,2.0,64,0.00,,---,0.00,VWS V12.08,2013-09-15 11:30:00,
2013-09-15 07:35:00,55.3,43.8,29.53,North,360,0.0,2.0,65,0.00,,---,0.00,VWS V12.08,2013-09-15 11:35:00,
2013-09-15 07:40:00,55.6,43.2,29.53,North,360,0.0,2.0,63,0.00,,---,0.00,VWS V12.08,2013-09-15 11:40:00,
2013-09-15 07:45:00,55.6,44.0,29.53,North,360,4.0,5.0,65,0.00,,---,0.00,VWS V12.08,2013-09-15 11:45:00,
2013-09-15 07:50:00,55.3,43.8,29.53,North,360,0.0,5.0,65,0.00,,---,0.00,VWS V12.08,2013-09-15 11:50:00,
2013-09-15 07:55:00,55.9,43.9,29.53,North,360,0.0,5.0,64,0.00,,---,0.00,VWS V12.08,2013-09-15 11:55:00,
2013-09-15 08:00:00,56.2,43.8,29.54,North,360,0.0,2.0,63,0.00,,---,0.00,VWS V12.08,2013-09-15 12:00:00,
2013-09-15 08:05:00,55.9,43.9,29.54,North,360,0.0,4.0,64,0.00,,---,0.00,VWS V12.08,2013-09-15 12:05:00,
2013-09-15 08:10:00,56.2,43.4,29.54,North,360,0.0,4.0,62,0.00,,---,0.00,VWS V12.08,2013-09-15 12:10:00,
2013-09-15 08:15:00,56.7,43.8,29.54,North,360,0.0,4.0,62,0.00,,---,0.00,VWS V12.08,2013-09-15 12:15:00,
2013-09-15 08:20:00,57.6,43.8,29.54,North,360,1.0,4.0,60,0.00,,---,0.00,VWS V12.08,2013-09-15 12:20:00,
2013-09-15 08:25:00,58.0,43.8,29.54,North,360,1.0,4.0,59,0.00,,---,0.00,VWS V12.08,2013-09-15 12:25:00,
2013-09-15 08:30:00,58.3,43.2,29.55,North,360,0.0,4.0,57,0.00,,---,0.00,VWS V12.08,2013-09-15 12:30:00,
2013-09-15 08:35:00,58.7,43.5,29.55,North,360,2.0,4.0,57,0.00,,---,0.00,VWS V12.08,2013-09-15 12:35:00,
2013-09-15 08:40:00,59.2,43.5,29.55,North,360,2.0,4.0,56,0.00,,---,0.00,VWS V12.08,2013-09-15 12:40:00,
2013-09-15 08:45:00,59.5,43.3,29.55,North,360,0.0,4.0,55,0.00,,---,0.00,VWS V12.08,2013-09-15 12:45:00,
2013-09-15 08:50:00,59.8,43.1,29.55,North,360,2.0,4.0,54,0.00,,---,0.00,VWS V12.08,2013-09-15 12:50:00,
2013-09-15 08:55:00,59.9,43.2,29.55,North,360,2.0,4.0,54,0.00,,---,0.00,VWS V12.08,2013-09-15 12:55:00,
2013-09-15 09:00:00,60.2,43.5,29.55,North,360,1.0,3.0,54,0.00,,---,0.00,VWS V12.08,2013-09-15 13:00:00,
2013-09-15 09:05:00,60.9,43.7,29.55,North,360,0.0,3.0,53,0.00,,---,0.00,VWS V12.08,2013-09-15 13:05:00,
2013-09-15 09:10:00,61.6,43.3,29.55,North,360,1.0,3.0,51,0.00,,---,0.00,VWS V12.08,2013-09-15 13:10:00,
2013-09-15 09:15:00,61.6,43.3,29.56,WSW,252,1.0,4.0,51,0.00,,---,0.00,VWS V12.08,2013-09-15 13:15:00,
2013-09-15 09:20:00,61.6,43.3,29.56,North,360,0.0,4.0,51,0.00,,---,0.00,VWS V12.08,2013-09-15 13:20:00,
2013-09-15 09:25:00,61.5,43.2,29.56,North,360,1.0,6.0,51,0.00,,---,0.00,VWS V12.08,2013-09-15 13:25:00,
2013-09-15 09:30:00,60.9,43.2,29.56,North,360,0.0,4.0,52,0.00,,---,0.00,VWS V12.08,2013-09-15 13:30:00,
2013-09-15 09:35:00,60.5,42.8,29.56,North,360,0.0,5.0,52,0.00,,---,0.00,VWS V12.08,2013-09-15 13:35:00,
2013-09-15 09:40:00,60.7,43.5,29.56,North,360,3.0,5.0,53,0.00,,---,0.00,VWS V12.08,2013-09-15 13:40:00,
2013-09-15 09:45:00,61.3,43.5,29.57,North,360,2.0,5.0,52,0.00,,---,0.00,VWS V12.08,2013-09-15 13:45:00,
2013-09-15 09:50:00,61.2,43.5,29.57,North,360,0.0,5.0,52,0.00,,---,0.00,VWS V12.08,2013-09-15 13:50:00,
2013-09-15 09:55:00,61.8,44.0,29.57,North,360,0.0,5.0,52,0.00,,---,0.00,VWS V12.08,2013-09-15 13:55:00,
2013-09-15 10:00:00,63.2,43.7,29.56,West,263,1.0,2.0,49,0.00,,---,0.00,VWS V12.08,2013-09-15 14:00:00,
2013-09-15 10:05:00,64.2,43.6,29.56,North,360,0.0,3.0,47,0.00,,---,0.00,VWS V12.08,2013-09-15 14:05:00,
2013-09-15 10:10:00,64.7,43.5,29.56,North,360,0.0,4.0,46,0.00,,---,0.00,VWS V12.08,2013-09-15 14:10:00,
2013-09-15 10:15:00,65.0,43.2,29.56,North,360,2.0,6.0,45,0.00,,---,0.00,VWS V12.08,2013-09-15 14:15:00,
2013-09-15 10:20:00,65.0,43.2,29.56,North,360,2.0,6.0,45,0.00,,---,0.00,VWS V12.08,2013-09-15 14:20:00,
2013-09-15 10:25:00,65.0,43.2,29.56,North,360,1.0,6.0,45,0.00,,---,0.00,VWS V12.08,2013-09-15 14:25:00,
2013-09-15 10:30:00,65.3,42.8,29.56,North,360,0.0,3.0,44,0.00,,---,0.00,VWS V12.08,2013-09-15 14:30:00,
2013-09-15 10:35:00,65.8,43.3,29.56,North,360,0.0,3.0,44,0.00,,---,0.00,VWS V12.08,2013-09-15 14:35:00,
2013-09-15 10:40:00,66.1,43.0,29.56,NNE,24,2.0,4.0,43,0.00,,---,0.00,VWS V12.08,2013-09-15 14:40:00,
2013-09-15 10:45:00,65.8,42.1,29.56,North,360,0.0,4.0,42,0.00,,---,0.00,VWS V12.08,2013-09-15 14:45:00,
2013-09-15 10:50:00,65.8,41.5,29.56,North,360,1.0,4.0,41,0.00,,---,0.00,VWS V12.08,2013-09-15 14:50:00,
2013-09-15 10:56:00,66.8,42.4,29.56,North,360,1.0,4.0,41,0.00,,---,0.00,VWS V12.08,2013-09-15 14:56:00,
2013-09-15 11:01:00,67.1,42.0,29.55,North,360,0.0,4.0,40,0.00,,---,0.00,VWS V12.08,2013-09-15 15:01:00,
2013-09-15 11:06:00,67.8,42.6,29.55,North,360,2.0,4.0,40,0.00,,---,0.00,VWS V12.08,2013-09-15 15:06:00,
2013-09-15 11:11:00,67.4,41.6,29.55,North,360,2.0,5.0,39,0.00,,---,0.00,VWS V12.08,2013-09-15 15:11:00,
2013-09-15 11:16:00,67.3,40.8,29.55,North,360,1.0,5.0,38,0.00,,---,0.00,VWS V12.08,2013-09-15 15:16:00,
2013-09-15 11:22:00,67.8,40.6,29.55,North,360,0.0,5.0,37,0.00,,---,0.00,VWS V12.08,2013-09-15 15:22:00,
2013-09-15 11:27:00,67.9,39.3,29.54,North,360,2.0,5.0,35,0.00,,---,0.00,VWS V12.08,2013-09-15 15:27:00,
2013-09-15 11:32:00,67.9,39.3,29.54,North,360,2.0,4.0,35,0.00,,---,0.00,VWS V12.08,2013-09-15 15:32:00,
2013-09-15 11:37:00,68.3,39.6,29.54,North,360,1.0,5.0,35,0.00,,---,0.00,VWS V12.08,2013-09-15 15:37:00,
2013-09-15 11:42:00,68.1,38.7,29.54,North,360,0.0,11.0,34,0.00,,---,0.00,VWS V12.08,2013-09-15 15:42:00,
2013-09-15 11:47:00,68.4,38.2,29.54,North,360,2.0,11.0,33,0.00,,---,0.00,VWS V12.08,2013-09-15 15:47:00,
2013-09-15 11:52:00,69.1,36.4,29.54,North,360,2.0,11.0,30,0.00,,---,0.00,VWS V12.08,2013-09-15 15:52:00,
2013-09-15 11:57:00,69.4,37.5,29.54,North,360,0.0,11.0,31,0.00,,---,0.00,VWS V12.08,2013-09-15 15:57:00,
2013-09-15 12:02:00,69.9,37.9,29.54,North,360,3.0,3.0,31,0.00,,---,0.00,VWS V12.08,2013-09-15 16:02:00,
2013-09-15 12:07:00,69.4,36.7,29.54,NW,312,0.0,8.0,30,0.00,,---,0.00,VWS V12.08,2013-09-15 16:07:00,
2013-09-15 12:12:00,69.4,37.5,29.54,North,360,0.0,11.0,31,0.00,,---,0.00,VWS V12.08,2013-09-15 16:12:00,
2013-09-15 12:17:00,69.6,37.7,29.54,North,360,3.0,11.0,31,0.00,,---,0.00,VWS V12.08,2013-09-15 16:17:00,
2013-09-15 12:22:00,70.3,38.3,29.54,North,360,2.0,11.0,31,0.00,,---,0.00,VWS V12.08,2013-09-15 16:22:00,
2013-09-15 12:27:00,70.4,38.3,29.54,NE,43,2.0,11.0,31,0.00,,---,0.00,VWS V12.08,2013-09-15 16:27:00,
2013-09-15 12:32:00,69.6,39.2,29.54,North,360,0.0,10.0,33,0.00,,---,0.00,VWS V12.08,2013-09-15 16:32:00,
2013-09-15 12:37:00,70.1,38.9,29.54,North,360,0.0,10.0,32,0.00,,---,0.00,VWS V12.08,2013-09-15 16:37:00,
2013-09-15 12:42:00,70.8,40.3,29.53,North,360,2.0,10.0,33,0.00,,---,0.00,VWS V12.08,2013-09-15 16:42:00,
2013-09-15 12:47:00,70.4,39.2,29.53,North,360,3.0,10.0,32,0.00,,---,0.00,VWS V12.08,2013-09-15 16:47:00,
2013-09-15 12:52:00,70.6,39.3,29.53,North,360,0.0,10.0,32,0.00,,---,0.00,VWS V12.08,2013-09-15 16:52:00,
2013-09-15 12:57:00,70.9,38.8,29.52,North,360,1.0,10.0,31,0.00,,---,0.00,VWS V12.08,2013-09-15 16:57:00,
2013-09-15 13:02:00,71.1,37.3,29.52,NNE,16,3.0,5.0,29,0.00,,---,0.00,VWS V12.08,2013-09-15 17:02:00,
2013-09-15 13:07:00,71.5,38.5,29.52,North,360,1.0,5.0,30,0.00,,---,0.00,VWS V12.08,2013-09-15 17:07:00,
2013-09-15 13:12:00,71.6,38.6,29.52,North,360,1.0,5.0,30,0.00,,---,0.00,VWS V12.08,2013-09-15 17:12:00,
2013-09-15 13:17:00,72.0,37.1,29.52,North,360,0.0,6.0,28,0.00,,---,0.00,VWS V12.08,2013-09-15 17:17:00,
2013-09-15 13:22:00,72.3,37.4,29.52,North,360,6.0,6.0,28,0.00,,---,0.00,VWS V12.08,2013-09-15 17:22:00,
2013-09-15 13:27:00,71.8,37.9,29.51,North,360,0.0,6.0,29,0.00,,---,0.00,VWS V12.08,2013-09-15 17:27:00,
2013-09-15 13:32:00,72.1,36.3,29.51,North,360,4.0,10.0,27,0.00,,---,0.00,VWS V12.08,2013-09-15 17:32:00,
2013-09-15 13:37:00,71.8,37.9,29.51,North,360,0.0,10.0,29,0.00,,---,0.00,VWS V12.08,2013-09-15 17:37:00,
2013-09-15 13:42:00,72.1,37.2,29.51,North,360,1.0,10.0,28,0.00,,---,0.00,VWS V12.08,2013-09-15 17:42:00,
2013-09-15 13:47:00,72.0,36.2,29.51,North,360,5.0,10.0,27,0.00,,---,0.00,VWS V12.08,2013-09-15 17:47:00,
2013-09-15 13:52:00,71.6,36.8,29.51,North,355,0.0,10.0,28,0.00,,---,0.00,VWS V12.08,2013-09-15 17:52:00,
2013-09-15 13:57:00,72.0,37.1,29.50,North,360,1.0,10.0,28,0.00,,---,0.00,VWS V12.08,2013-09-15 17:57:00,
2013-09-15 14:02:00,72.3,36.5,29.50,North,360,0.0,4.0,27,0.00,,---,0.00,VWS V12.08,2013-09-15 18:02:00,
2013-09-15 14:07:00,72.7,36.8,29.50,North,360,2.0,4.0,27,0.00,,---,0.00,VWS V12.08,2013-09-15 18:07:00,
2013-09-15 14:12:00,72.8,36.9,29.50,North,360,2.0,4.0,27,0.00,,---,0.00,VWS V12.08,2013-09-15 18:12:00,
2013-09-15 14:17:00,73.5,36.5,29.50,North,360,0.0,4.0,26,0.00,,---,0.00,VWS V12.08,2013-09-15 18:17:00,
2013-09-15 14:22:00,73.2,38.2,29.50,North,360,0.0,11.0,28,0.00,,---,0.00,VWS V12.08,2013-09-15 18:22:00,
2013-09-15 14:27:00,72.7,36.8,29.49,North,360,1.0,11.0,27,0.00,,---,0.00,VWS V12.08,2013-09-15 18:27:00,
2013-09-15 14:32:00,71.1,36.4,29.49,North,360,1.0,6.0,28,0.00,,---,0.00,VWS V12.08,2013-09-15 18:32:00,
2013-09-15 14:37:00,70.9,36.2,29.49,North,360,3.0,6.0,28,0.00,,---,0.00,VWS V12.08,2013-09-15 18:37:00,
2013-09-15 14:42:00,71.1,37.3,29.49,North,360,0.0,6.0,29,0.00,,---,0.00,VWS V12.08,2013-09-15 18:42:00,
2013-09-15 14:47:00,71.6,37.7,29.49,North,360,1.0,6.0,29,0.00,,---,0.00,VWS V12.08,2013-09-15 18:47:00,
2013-09-15 14:52:00,71.8,37.0,29.49,North,360,0.0,6.0,28,0.00,,---,0.00,VWS V12.08,2013-09-15 18:52:00,
2013-09-15 14:57:00,71.8,37.0,29.48,South,173,5.0,6.0,28,0.00,,---,0.00,VWS V12.08,2013-09-15 18:57:00,
2013-09-15 15:02:00,71.3,37.4,29.48,North,360,1.0,5.0,29,0.00,,---,0.00,VWS V12.08,2013-09-15 19:02:00,
2013-09-15 15:07:00,71.6,38.6,29.48,North,360,0.0,6.0,30,0.00,,---,0.00,VWS V12.08,2013-09-15 19:07:00,
2013-09-15 15:12:00,72.0,38.9,29.48,North,360,0.0,6.0,30,0.00,,---,0.00,VWS V12.08,2013-09-15 19:12:00,
2013-09-15 15:17:00,72.3,37.4,29.48,North,360,2.0,6.0,28,0.00,,---,0.00,VWS V12.08,2013-09-15 19:17:00,
2013-09-15 15:22:00,72.7,37.8,29.48,North,360,1.0,6.0,28,0.00,,---,0.00,VWS V12.08,2013-09-15 19:22:00,
2013-09-15 15:27:00,73.0,38.0,29.48,North,360,0.0,6.0,28,0.00,,---,0.00,VWS V12.08,2013-09-15 19:27:00,
2013-09-15 15:32:00,73.5,38.4,29.48,North,360,3.0,4.0,28,0.00,,---,0.00,VWS V12.08,2013-09-15 19:32:00,
2013-09-15 15:37:00,73.3,39.2,29.48,North,360,0.0,5.0,29,0.00,,---,0.00,VWS V12.08,2013-09-15 19:37:00,
2013-09-15 15:42:00,73.5,38.4,29.47,North,360,0.0,5.0,28,0.00,,---,0.00,VWS V12.08,2013-09-15 19:42:00,
2013-09-15 15:47:00,73.7,38.6,29.47,North,360,0.0,5.0,28,0.00,,---,0.00,VWS V12.08,2013-09-15 19:47:00,
2013-09-15 15:52:00,73.5,39.3,29.47,North,360,0.0,5.0,29,0.00,,---,0.00,VWS V12.08,2013-09-15 19:52:00,
2013-09-15 15:57:00,73.7,37.7,29.46,North,360,0.0,5.0,27,0.00,,---,0.00,VWS V12.08,2013-09-15 19:57:00,
2013-09-15 16:02:00,74.0,38.9,29.46,North,360,0.0,5.0,28,0.00,,---,0.00,VWS V12.08,2013-09-15 20:02:00,
2013-09-15 16:07:00,73.9,37.8,29.46,North,360,0.0,5.0,27,0.00,,---,0.00,VWS V12.08,2013-09-15 20:07:00,
2013-09-15 16:12:00,74.0,37.9,29.45,North,360,0.0,5.0,27,0.00,,---,0.00,VWS V12.08,2013-09-15 20:12:00,
2013-09-15 16:17:00,73.7,38.6,29.45,North,360,1.0,5.0,28,0.00,,---,0.00,VWS V12.08,2013-09-15 20:17:00,
2013-09-15 16:22:00,73.7,39.5,29.45,North,360,0.0,5.0,29,0.00,,---,0.00,VWS V12.08,2013-09-15 20:22:00,
2013-09-15 16:27:00,73.9,38.8,29.45,North,360,0.0,5.0,28,0.00,,---,0.00,VWS V12.08,2013-09-15 20:27:00,
2013-09-15 16:32:00,74.0,38.9,29.45,North,360,0.0,6.0,28,0.00,,---,0.00,VWS V12.08,2013-09-15 20:32:00,
2013-09-15 16:37:00,73.5,39.3,29.45,North,360,0.0,6.0,29,0.00,,---,0.00,VWS V12.08,2013-09-15 20:37:00,
2013-09-15 16:42:00,73.2,38.2,29.45,North,360,0.0,7.0,28,0.00,,---,0.00,VWS V12.08,2013-09-15 20:42:00,
2013-09-15 16:47:00,73.0,37.1,29.45,North,360,2.0,7.0,27,0.00,,---,0.00,VWS V12.08,2013-09-15 20:47:00,
2013-09-15 16:52:00,73.2,38.2,29.45,North,360,0.0,7.0,28,0.00,,---,0.00,VWS V12.08,2013-09-15 20:52:00,
2013-09-15 16:57:00,73.3,38.3,29.45,North,360,0.0,7.0,28,0.00,,---,0.00,VWS V12.08,2013-09-15 20:57:00,
2013-09-15 17:02:00,73.7,38.6,29.45,North,360,1.0,2.0,28,0.00,,---,0.00,VWS V12.08,2013-09-15 21:02:00,
2013-09-15 17:07:00,73.9,37.8,29.45,North,360,0.0,2.0,27,0.00,,---,0.00,VWS V12.08,2013-09-15 21:07:00,
2013-09-15 17:12:00,74.0,37.9,29.45,North,360,0.0,3.0,27,0.00,,---,0.00,VWS V12.08,2013-09-15 21:12:00,
2013-09-15 17:17:00,73.0,36.1,29.45,North,360,0.0,7.0,26,0.00,,---,0.00,VWS V12.08,2013-09-15 21:17:00,
2013-09-15 17:22:00,73.0,37.1,29.45,North,360,1.0,7.0,27,0.00,,---,0.00,VWS V12.08,2013-09-15 21:22:00,
2013-09-15 17:27:00,72.5,36.7,29.45,North,360,0.0,7.0,27,0.00,,---,0.00,VWS V12.08,2013-09-15 21:27:00,
2013-09-15 17:32:00,72.3,38.3,29.45,North,360,4.0,7.0,29,0.00,,---,0.00,VWS V12.08,2013-09-15 21:32:00,
2013-09-15 17:37:00,71.5,39.3,29.45,North,360,0.0,7.0,31,0.00,,---,0.00,VWS V12.08,2013-09-15 21:37:00,
2013-09-15 17:42:00,72.0,38.0,29.44,South,171,4.0,7.0,29,0.00,,---,0.00,VWS V12.08,2013-09-15 21:42:00,
2013-09-15 17:47:00,71.5,37.6,29.44,North,360,0.0,7.0,29,0.00,,---,0.00,VWS V12.08,2013-09-15 21:47:00,
2013-09-15 17:52:00,71.1,37.3,29.44,North,360,1.0,9.0,29,0.00,,---,0.00,VWS V12.08,2013-09-15 21:52:00,
2013-09-15 17:57:00,71.1,38.1,29.45,North,360,0.0,9.0,30,0.00,,---,0.00,VWS V12.08,2013-09-15 21:57:00,
2013-09-15 18:02:00,71.3,39.1,29.45,North,360,2.0,2.0,31,0.00,,---,0.00,VWS V12.08,2013-09-15 22:02:00,
2013-09-15 18:07:00,71.6,38.6,29.45,North,360,1.0,2.0,30,0.00,,---,0.00,VWS V12.08,2013-09-15 22:07:00,
2013-09-15 18:12:00,71.5,39.3,29.45,North,360,0.0,5.0,31,0.00,,---,0.00,VWS V12.08,2013-09-15 22:12:00,
2013-09-15 18:17:00,71.3,40.7,29.45,North,360,0.0,5.0,33,0.00,,---,0.00,VWS V12.08,2013-09-15 22:17:00,
2013-09-15 18:22:00,70.8,47.2,29.45,SSE,157,0.0,5.0,43,0.00,,---,0.00,VWS V12.08,2013-09-15 22:22:00,
2013-09-15 18:27:00,69.9,47.6,29.44,North,360,3.0,5.0,45,0.00,,---,0.00,VWS V12.08,2013-09-15 22:27:00,
2013-09-15 18:32:00,69.4,47.7,29.44,North,360,2.0,5.0,46,0.00,,---,0.00,VWS V12.08,2013-09-15 22:32:00,
2013-09-15 18:37:00,69.1,48.0,29.44,North,360,4.0,9.0,47,0.00,,---,0.00,VWS V12.08,2013-09-15 22:37:00,
2013-09-15 18:42:00,68.6,48.2,29.44,North,360,0.0,9.0,48,0.00,,---,0.00,VWS V12.08,2013-09-15 22:42:00,
2013-09-15 18:47:00,68.4,48.5,29.44,North,360,4.0,9.0,49,0.00,,---,0.00,VWS V12.08,2013-09-15 22:47:00,
2013-09-15 18:52:00,68.4,48.5,29.44,North,360,3.0,9.0,49,0.00,,---,0.00,VWS V12.08,2013-09-15 22:52:00,
2013-09-15 18:57:00,68.4,49.6,29.43,North,360,0.0,9.0,51,0.00,,---,0.00,VWS V12.08,2013-09-15 22:57:00,
2013-09-15 19:02:00,68.6,49.8,29.43,North,360,0.0,3.0,51,0.00,,---,0.00,VWS V12.08,2013-09-15 23:02:00,
2013-09-15 19:07:00,68.3,50.5,29.43,North,360,0.0,5.0,53,0.00,,---,0.00,VWS V12.08,2013-09-15 23:07:00,
2013-09-15 19:12:00,68.3,50.5,29.44,North,360,0.0,5.0,53,0.00,,---,0.00,VWS V12.08,2013-09-15 23:12:00,
2013-09-15 19:17:00,68.1,50.3,29.44,North,360,0.0,5.0,53,0.00,,---,0.00,VWS V12.08,2013-09-15 23:17:00,
2013-09-15 19:22:00,68.1,50.8,29.44,North,360,0.0,5.0,54,0.00,,---,0.00,VWS V12.08,2013-09-15 23:22:00,
2013-09-15 19:27:00,68.3,50.5,29.44,North,360,0.0,5.0,53,0.00,,---,0.00,VWS V12.08,2013-09-15 23:27:00,
2013-09-15 19:32:00,68.3,50.5,29.44,North,360,0.0,4.0,53,0.00,,---,0.00,VWS V12.08,2013-09-15 23:32:00,
2013-09-15 19:37:00,68.3,51.0,29.44,North,360,1.0,4.0,54,0.00,,---,0.00,VWS V12.08,2013-09-15 23:37:00,
2013-09-15 19:42:00,68.3,51.5,29.44,North,360,0.0,4.0,55,0.00,,---,0.00,VWS V12.08,2013-09-15 23:42:00,
2013-09-15 19:47:00,68.1,51.3,29.44,North,360,0.0,4.0,55,0.00,,---,0.00,VWS V12.08,2013-09-15 23:47:00,
2013-09-15 19:52:00,67.9,51.6,29.44,North,360,0.0,4.0,56,0.00,,---,0.00,VWS V12.08,2013-09-15 23:52:00,
2013-09-15 19:57:00,68.1,51.3,29.44,North,360,3.0,4.0,55,0.00,,---,0.00,VWS V12.08,2013-09-15 23:57:00,
2013-09-15 20:02:00,68.3,52.0,29.44,North,360,2.0,3.0,56,0.00,,---,0.00,VWS V12.08,2013-09-16 00:02:00,
2013-09-15 20:07:00,67.9,51.6,29.44,North,360,0.0,4.0,56,0.00,,---,0.00,VWS V12.08,2013-09-16 00:07:00,
2013-09-15 20:12:00,67.8,52.0,29.44,North,360,0.0,4.0,57,0.00,,---,0.00,VWS V12.08,2013-09-16 00:12:00,
2013-09-15 20:17:00,68.3,52.0,29.44,North,360,0.0,4.0,56,0.00,,---,0.00,VWS V12.08,2013-09-16 00:17:00,
2013-09-15 20:22:00,68.1,51.8,29.44,North,360,0.0,4.0,56,0.00,,---,0.00,VWS V12.08,2013-09-16 00:22:00,
2013-09-15 20:27:00,68.1,51.8,29.44,North,360,0.0,5.0,56,0.00,,---,0.00,VWS V12.08,2013-09-16 00:27:00,
2013-09-15 20:32:00,68.1,51.8,29.44,North,360,0.0,2.0,56,0.00,,---,0.00,VWS V12.08,2013-09-16 00:32:00,
2013-09-15 20:37:00,68.3,51.5,29.44,North,360,0.0,2.0,55,0.00,,---,0.00,VWS V12.08,2013-09-16 00:37:00,
2013-09-15 20:42:00,68.4,51.6,29.45,North,360,0.0,2.0,55,0.00,,---,0.00,VWS V12.08,2013-09-16 00:42:00,
2013-09-15 20:47:00,68.6,50.8,29.45,North,360,1.0,4.0,53,0.00,,---,0.00,VWS V12.08,2013-09-16 00:47:00,
2013-09-15 20:52:00,68.6,51.3,29.45,North,360,0.0,4.0,54,0.00,,---,0.00,VWS V12.08,2013-09-16 00:52:00,
2013-09-15 20:57:00,68.4,51.1,29.44,North,360,0.0,4.0,54,0.00,,---,0.00,VWS V12.08,2013-09-16 00:57:00,
2013-09-15 21:02:00,68.4,51.6,29.44,North,360,0.0,2.0,55,0.00,,---,0.00,VWS V12.08,2013-09-16 01:02:00,
2013-09-15 21:07:00,68.3,51.0,29.44,North,360,0.0,2.0,54,0.00,,---,0.00,VWS V12.08,2013-09-16 01:07:00,
2013-09-15 21:12:00,68.6,50.8,29.45,North,360,0.0,2.0,53,0.00,,---,0.00,VWS V12.08,2013-09-16 01:12:00,
2013-09-15 21:17:00,68.9,48.4,29.45,North,360,1.0,2.0,48,0.00,,---,0.00,VWS V12.08,2013-09-16 01:17:00,
2013-09-15 21:22:00,68.9,48.4,29.45,North,360,0.0,3.0,48,0.00,,---,0.00,VWS V12.08,2013-09-16 01:22:00,
2013-09-15 21:27:00,69.3,49.3,29.45,North,360,1.0,3.0,49,0.00,,---,0.00,VWS V12.08,2013-09-16 01:27:00,
2013-09-15 21:32:00,69.1,48.0,29.45,North,360,0.0,6.0,47,0.00,,---,0.00,VWS V12.08,2013-09-16 01:32:00,
2013-09-15 21:37:00,69.1,48.6,29.45,North,360,5.0,6.0,48,0.00,,---,0.00,VWS V12.08,2013-09-16 01:37:00,
2013-09-15 21:42:00,68.8,48.3,29.45,North,360,2.0,6.0,48,0.00,,---,0.00,VWS V12.08,2013-09-16 01:42:00,
2013-09-15 21:47:00,68.4,48.0,29.45,North,360,0.0,7.0,48,0.00,,---,0.00,VWS V12.08,2013-09-16 01:47:00,
2013-09-15 21:52:00,68.4,48.5,29.45,North,360,0.0,7.0,49,0.00,,---,0.00,VWS V12.08,2013-09-16 01:52:00,
2013-09-15 21:57:00,68.3,48.4,29.45,North,360,3.0,7.0,49,0.00,,---,0.00,VWS V12.08,2013-09-16 01:57:00,
2013-09-15 22:02:00,68.4,48.5,29.45,North,360,3.0,3.0,49,0.00,,---,0.00,VWS V12.08,2013-09-16 02:02:00,
2013-09-15 22:07:00,68.4,48.5,29.45,North,360,0.0,4.0,49,0.00,,---,0.00,VWS V12.08,2013-09-16 02:07:00,
2013-09-15 22:12:00,68.8,48.3,29.45,North,360,2.0,4.0,48,0.00,,---,0.00,VWS V12.08,2013-09-16 02:12:00,
2013-09-15 22:17:00,68.4,48.0,29.45,North,360,0.0,5.0,48,0.00,,---,0.00,VWS V12.08,2013-09-16 02:17:00,
2013-09-15 22:22:00,68.4,48.0,29.45,North,360,0.0,5.0,48,0.00,,---,0.00,VWS V12.08,2013-09-16 02:22:00,
2013-09-15 22:27:00,68.6,48.2,29.44,North,360,1.0,5.0,48,0.00,,---,0.00,VWS V12.08,2013-09-16 02:27:00,
2013-09-15 22:32:00,68.9,47.9,29.44,North,360,1.0,1.0,47,0.00,,---,0.00,VWS V12.08,2013-09-16 02:32:00,
2013-09-15 22:37:00,68.9,48.4,29.44,North,360,0.0,3.0,48,0.00,,---,0.00,VWS V12.08,2013-09-16 02:37:00,
2013-09-15 22:42:00,68.8,47.8,29.45,North,360,0.0,6.0,47,0.00,,---,0.00,VWS V12.08,2013-09-16 02:42:00,
2013-09-15 22:47:00,68.8,48.3,29.45,North,360,0.0,6.0,48,0.00,,---,0.00,VWS V12.08,2013-09-16 02:47:00,
2013-09-15 22:52:00,68.6,48.2,29.45,North,360,4.0,6.0,48,0.00,,---,0.00,VWS V12.08,2013-09-16 02:52:00,
2013-09-15 22:57:00,67.4,48.7,29.45,North,360,5.0,16.0,51,0.00,,---,0.00,VWS V12.08,2013-09-16 02:57:00,
2013-09-15 23:02:00,66.9,49.2,29.45,North,360,1.0,9.0,53,0.00,,---,0.00,VWS V12.08,2013-09-16 03:02:00,
2013-09-15 23:07:00,66.6,49.5,29.45,North,360,4.0,9.0,54,0.00,,---,0.00,VWS V12.08,2013-09-16 03:07:00,
2013-09-15 23:12:00,66.4,49.8,29.45,North,360,0.0,9.0,55,0.00,,---,0.00,VWS V12.08,2013-09-16 03:12:00,
2013-09-15 23:17:00,66.3,50.2,29.45,North,360,5.0,9.0,56,0.00,,---,0.00,VWS V12.08,2013-09-16 03:17:00,
2013-09-15 23:22:00,66.3,50.6,29.45,North,360,0.0,9.0,57,0.00,,---,0.00,VWS V12.08,2013-09-16 03:22:00,
2013-09-15 23:27:00,66.1,50.4,29.45,North,360,4.0,9.0,57,0.00,,---,0.00,VWS V12.08,2013-09-16 03:27:00,
2013-09-15 23:32:00,66.1,50.4,29.45,North,360,0.0,6.0,57,0.00,,---,0.00,VWS V12.08,2013-09-16 03:32:00,
2013-09-15 23:37:00,66.1,50.4,29.45,North,360,0.0,6.0,57,0.00,,---,0.00,VWS V12.08,2013-09-16 03:37:00,
2013-09-15 23:42:00,66.1,50.4,29.45,North,360,1.0,6.0,57,0.00,,---,0.00,VWS V12.08,2013-09-16 03:42:00,
2013-09-15 23:47:00,66.3,50.6,29.45,North,360,1.0,6.0,57,0.00,,---,0.00,VWS V12.08,2013-09-16 03:47:00,
2013-09-15 23:52:00,66.1,50.9,29.45,North,360,0.0,9.0,58,0.00,,---,0.00,VWS V12.08,2013-09-16 03:52:00,
2013-09-15 23:57:00,66.1,50.9,29.45,North,360,1.0,9.0,58,0.00,,---,0.00,VWS V12.08,2013-09-16 03:57:00,